Weather History for Charlotte, NC

Change the Weather History Date:

Sunday, August 24, 2003

  Actual Average Record
Temperature  
Mean Temperature 78 °F 77 °F  
Max Temperature 84 °F 87 °F 97 °F (1968)
Min Temperature 71 °F 67 °F 55 °F (1888)
Degree Days  
Heating Degree Days 0 0  
Month to date heating degree days 0  
Since 1 June heating degree days 3  
Since 1 July heating degree days 0  
Cooling Degree Days 12 12  
Month to date cooling degree days 305  
Year to date cooling degree days 1199  
Since 1 June cooling degree days 1036  
Growing Degree Days 28 (Base 50)    
Moisture  
Dew Point 68 °F    
Average Humidity 76    
Maximum Humidity 100    
Minimum Humidity 52    
Precipitation  
Precipitation 0.00 in 0.14 in 2.35 in (1983)
Month to date precipitation 3.31  
Year to date precipitation 27.69  
Snow  
Snow 0.00 in 0.00 in 0.00 in ()
Month to date snowfall 0.0  
Since 1 June snowfall 0.0  
Since 1 July snowfall 0.0  
Snow Depth -    
Sea Level Pressure  
Sea Level Pressure 30.08 in    
Wind  
Wind Speed 7 mph (ENE)    
Max Wind Speed 15 mph    
Max Gust Speed -    
Visibility 8 miles    
Events      
T = Trace of Precipitation, MM = Missing Value Source: NWS Daily Summary

Daily Weather History Graph

Daily Weather History Graph

Search for Another Location

Airport:

Trip Planner

Search our weather history database for the weather conditions in past years. The results will help you decide how hot, cold, wet, or windy it might be!

Date:

Astronomy

Aug. 24, 2003 Rise Set
Actual Time 6:50 AM EDT 8:01 PM EDT
Civil Twilight 6:23 AM EDT 8:28 PM EDT
Nautical Twilight 5:52 AM EDT 8:59 PM EDT
Astronomical Twilight 5:19 AM EDT 9:31 PM EDT
Moon 3:16 AM EDT (8/24) 6:27 PM EDT (8/24)
Length of Visible Light 14h 04m
Length of Day
13h 11m
Waning Crescent, 11% of the Moon is Illuminated
Aug 24
Waning Crescent
Aug 27
New
Sep 3
First Quarter
Sep 10
Full
Sep 18
Last Quarter

Hourly Weather History & Observations

Time (EDT) Temp. Heat Index Dew Point Humidity Pressure Visibility Wind Dir Wind Speed Gust Speed Precip Events Conditions
12:51 AM 77.0 °F - 73.9 °F 90% 30.00 in 6.0 mi Calm Calm - N/A   Mostly Cloudy
1:51 AM 77.0 °F - 71.6 °F 83% 30.00 in 8.0 mi North 12.7 mph - N/A   Overcast
2:51 AM 75.0 °F - 72.0 °F 90% 30.00 in 6.0 mi NNE 6.9 mph - 0.00 in   Overcast
3:51 AM 75.0 °F - 73.0 °F 94% 30.02 in 6.0 mi Variable 6.9 mph - N/A   Overcast
4:51 AM 73.9 °F - 72.0 °F 93% 30.02 in 8.0 mi NNE 9.2 mph - N/A   Overcast
5:51 AM 73.0 °F - 71.1 °F 93% 30.04 in 8.0 mi NE 6.9 mph - N/A   Overcast
6:17 AM 73.4 °F - 71.6 °F 94% 30.07 in 7.0 mi NNE 5.8 mph - N/A   Scattered Clouds
6:39 AM 71.6 °F - 71.6 °F 100% 30.08 in 7.0 mi NNE 6.9 mph - N/A   Mostly Cloudy
6:51 AM 73.0 °F - 71.1 °F 93% 30.05 in 6.0 mi NE 8.1 mph - N/A   Overcast
7:22 AM 73.4 °F - 71.6 °F 94% 30.09 in 4.0 mi NE 9.2 mph - N/A   Overcast
7:39 AM 73.4 °F - 69.8 °F 88% 30.10 in 4.0 mi ENE 8.1 mph - N/A   Overcast
7:51 AM 73.9 °F - 70.0 °F 87% 30.08 in 6.0 mi NE 8.1 mph - N/A   Overcast
8:51 AM 73.9 °F - 66.0 °F 76% 30.10 in 9.0 mi East 11.5 mph - N/A   Overcast
9:11 AM 75.2 °F - 64.4 °F 69% 30.13 in 10.0 mi East 10.4 mph - N/A   Overcast
9:51 AM 75.9 °F - 64.0 °F 67% 30.12 in 10.0 mi East 10.4 mph - N/A   Overcast
10:51 AM 78.1 °F - 62.1 °F 58% 30.13 in 10.0 mi East 9.2 mph - N/A   Overcast
11:51 AM 81.0 °F 81.9 °F 62.1 °F 52% 30.13 in 10.0 mi ENE 15.0 mph - N/A   Mostly Cloudy
12:51 PM 82.0 °F 83.1 °F 63.0 °F 52% 30.12 in 10.0 mi ENE 9.2 mph - N/A   Scattered Clouds
1:51 PM 82.0 °F 83.1 °F 63.0 °F 52% 30.12 in 10.0 mi ENE 6.9 mph - N/A   Scattered Clouds
2:51 PM 82.9 °F 84.6 °F 64.9 °F 54% 30.10 in 10.0 mi ESE 6.9 mph - N/A   Scattered Clouds
3:51 PM 84.0 °F 86.3 °F 66.0 °F 55% 30.08 in 10.0 mi NNE 5.8 mph - N/A   Scattered Clouds
4:51 PM 82.0 °F 84.5 °F 66.9 °F 60% 30.08 in 10.0 mi NNE 8.1 mph - N/A   Mostly Cloudy
5:51 PM 82.0 °F 84.5 °F 66.9 °F 60% 30.08 in 10.0 mi East 8.1 mph - N/A   Mostly Cloudy
6:51 PM 80.1 °F 82.3 °F 66.9 °F 64% 30.08 in 10.0 mi East 9.2 mph - N/A   Mostly Cloudy
7:51 PM 78.1 °F - 68.0 °F 71% 30.08 in 10.0 mi East 6.9 mph - N/A   Partly Cloudy
8:51 PM 77.0 °F - 66.9 °F 71% 30.09 in 10.0 mi ESE 6.9 mph - N/A   Partly Cloudy
9:51 PM 73.9 °F - 68.0 °F 82% 30.11 in 10.0 mi SSE 3.5 mph - N/A   Partly Cloudy
10:51 PM 72.0 °F - 68.0 °F 87% 30.11 in 10.0 mi Calm Calm - N/A   Clear
11:51 PM 73.0 °F - 66.9 °F 81% 30.11 in 10.0 mi ESE 5.8 mph - N/A   Clear